Location: Glendale
(37.4556°N, 88.6714°W)
Time: 09:43:21
(UTC+00:00)

OAO 2 Rocket - Pass Details

Date: 08 December 2019
Orbit: 676 x 746 km, 35.0° (Epoch: 19 January)

Event Time Altitude Azimuth Distance (km) Brightness Sun altitude
Rises 00:23:14 0° 259° (W) 3,051 8.2 -20.6°
Reaches altitude 10° 00:25:37 10° 257° (WSW) 2,146 7.0 -21.1°
Maximum altitude 00:30:37 66° 175° (S) 768 3.4 -22.0°
Enters shadow 00:31:45 50° 118° (ESE) 899 3.5 -22.3°
